Showing default

IRIDIUM 106, 41917

Orbit data source: Space-Track

IRIDIUM 106, 41917 is a payload satellite owned by Iridium (US) in LEO that was launched on Sat, 14 Jan 2017 UTC via an FALCON 9 launch vehicle from the Air Force Western Test Range (AFWTR). Payload-class satellites include a variety of spacecraft equipped with specific instruments for various scientific and technological missions. These include communications satellites like Starlink; space stations such as the ISS; scientific satellites like the Hubble; Earth observation satellites from companies like Planet Labs, Umbra, and HawkEye 360; GPS; miniature CubeSats for education and research; and military/defense satellites.

Loading next visibility...
Identifier
41917, 2017-003A
Orbit
LEO
Last TLE update
3 hours ago
Origin
Manufacturer
OATK SSG Gilbert
Mission
Operational Commercial Communications
Bus & Motor
ELITEBUS, Unknown motor
Mass
860 kg wet, 700 kg dry
Launch date (UTC)
2017-01-14 (8 years ago)
Launch vehicle
FALCON 9
Launch site
Air Force Western Test Range (AFWTR)
Object type
Payload
Rocket body
Debris
Shape & HBR
Trap Box + 2 Pan, 9.4 m
Radar Cross Section
14.423 m², Large (>1 m²)

Expand to show TLE details & history

TLE from 3 hours ago
0 IRIDIUM 106
1 41917U 17003A   25190.18321994  .00000036  00000-0  58184-5 0  9997
2 41917  86.3959 231.8108 0001895  85.0842 275.0570 14.34217766444040
Epoch: 2025-07-09T04:23Z
TLE epoch observation values (Epoch: 2025-07-09T04:23:50.202Z)
Latitude
-0.00005°
Longitude
-121.51589°
Altitude
780.599 km
Speed
7.464 km/s
True Right ascension
15h 27m 14s
True Declination
0° 00' 00"
Sunlit
Object was in full shadow at epoch
Visualization orbit readout
Latitude
-53.43255°
Longitude
63.28111°
Altitude
799.658 km
Speed
7.452 km/s
Apparent Right ascension
05h 40m 17s
Apparent Declination
-50° 02' 56"
Sunlit
Object is in daylight
Visualization observer readout
Local Sidereal Time
19:18:49
Azimuth
128.568° SE
Elevation
-69.98°
Doppler factor
1
Orbital elements
Apogee altitude
775.987 km
Perigee altitude
773.276 km
Semi-major axis
7,152.769 km
Eccentricity
0.00019
Inclination
86.3959°
RAAN
231.8108°
Arg. of periapsis
85.0842°
True anomaly
Unknown
Mean anomaly
275.057°
Eccentric anomaly
Unknown
Mean motion
3.58783 °/min
Orbital period
100.34 mins
BSTAR
0.0000058184
Loading maneuver chart data...
Loading SW <> Apogee altitude chart data...
Loading historical data...
Loading historical data...
Loading historical data...
Loading historical data...
Loading historical data...
Loading historical data...
Loading historical data...

IRIDIUM 106 Visibility forecast

Observer location: undefined°, undefined°

Span
Click to sort rows by Start time (UTC) header in descending order
Start Az.
Max El. time (UTC)
Max El. Az.
Max El.
End time (UTC)
End Az.
9 mins2025-07-09 15:01:22.868Z356.553° N2025-07-09 15:05:22.868Z338.032° N44.58°2025-07-09 15:10:22.868Z180.61° SSW
6 mins2025-07-10 02:18:22.868Z121.5° SE2025-07-10 02:21:22.868Z79.003° E20.535°2025-07-10 02:24:22.868Z38.518° NE
8 mins2025-07-10 03:58:22.868Z217.729° SW2025-07-10 04:01:22.868Z269.488° W32.356°2025-07-10 04:06:22.868Z346.394° N
|